Location: Arrodets-la-Barthe
(43.0306°N, 0.2829°E)
Time: 07:45:59
(UTC+00:00)

Lacrosse 4 Rocket - Pass Details

Date: 06 June 2022
Orbit: 541 x 611 km, 68.0° (Epoch: 03 July)

Event Time Altitude Azimuth Distance (km) Brightness Sun altitude
Exits shadow 02:09:23 28° 256° (WSW) 1,082 2.4 -17.7°
Maximum altitude 02:10:58 40° 304° (NW) 842 2.2 -17.5°
Drops below altitude 10° 02:14:55 10° 15° (NNE) 1,857 5.2 -17.1°
Sets 02:17:13 0° 23° (NNE) 2,746 6.5 -16.9°
